This demonstration page uses our WeatherBlox Daily Observations layout. Learn more.

Left ArrowRight Arrow

44.8408, -93.29828

Hourly Observations for November 3, 2019

Temp ( °F °C ) Dew Point ( °F °C ) Humidity (%) Winds ( mph kmh ) Pressure ( in mb ) Visibility ( mi km ) Precip ( " mm )
12:53 am 00:53 Mostly Cloudy 31 -0.6 25 -3.9 79 79 SE 3 6 30.09 1019 10 16 0.00 0.00
1:53 am 01:53 Cloudy 32 0 25 -3.9 75 75 Calm 30.08 1019 10 16 0.00 0.00
1:53 am 01:53 Cloudy 31 -0.6 25 -3.9 79 79 SE 3 6 30.06 1018 10 16 0.00 0.00
2:53 am 02:53 Clear 30 -1.1 23 -5 75 75 ESE 5 7 30.05 1018 10 16 0.00 0.00
3:53 am 03:53 Cloudy 30 -1.1 24 -4.4 79 79 SE 7 11 30.03 1017 10 16 0.00 0.00
4:53 am 04:53 Cloudy 31 -0.6 25 -3.9 79 79 ESE 8 13 30.01 1016 10 16 0.00 0.00
5:53 am 05:53 Cloudy 32 0 25 -3.9 75 75 ESE 9 15 29.99 1016 10 16 0.00 0.00
6:53 am 06:53 Cloudy 32 0 25 -3.9 75 75 SE 8 13 29.98 1015 10 16 0.00 0.00
7:53 am 07:53 Cloudy 33 0.6 26 -3.3 75 75 ESE 9 15 29.98 1015 10 16 0.00 0.00
8:53 am 08:53 Cloudy 34 1.1 26 -3.3 73 73 ESE 12 19 29.97 1015 10 16 0.00 0.00
9:53 am 09:53 Cloudy 35 1.7 27 -2.8 72 72 ESE 13 20 29.96 1015 10 16 0.00 0.00
10:53 am 10:53 Cloudy 38 3.3 29 -1.7 70 70 ESE 10 17 29.94 1014 10 16 0.00 0.00
11:53 am 11:53 Mostly Cloudy 39 3.9 29 -1.7 67 67 ESE 9 15 29.92 1013 10 16 0.00 0.00
12:53 pm 12:53 Partly Cloudy 41 5 29 -1.7 62 62 S 3 6 29.90 1012 10 16 0.00 0.00
1:53 pm 13:53 Mostly Cloudy 42 5.6 30 -1.1 62 62 VRB 5 7 29.87 1011 10 16 0.00 0.00
2:53 pm 14:53 Mostly Cloudy 45 7.2 32 0 61 61 ESE 5 7 29.85 1011 10 16 0.00 0.00
3:53 pm 15:53 Cloudy 43 6.1 31 -0.6 63 63 ESE 6 9 29.85 1011 10 16 0.00 0.00
4:53 pm 16:53 Cloudy 44 6.7 29 -1.7 55 55 SW 5 7 29.84 1010 10 16 0.00 0.00
5:53 pm 17:53 Cloudy 43 6.1 29 -1.7 58 58 Calm 29.84 1010 10 16 0.00 0.00
6:53 pm 18:53 Cloudy 42 5.6 29 -1.7 60 60 Calm 29.85 1011 10 16 0.00 0.00
7:53 pm 19:53 Cloudy 42 5.6 30 -1.1 62 62 Calm 29.83 1010 10 16 0.00 0.00
8:53 pm 20:53 Cloudy 42 5.6 30 -1.1 62 62 SW 3 6 29.83 1010 10 16 0.00 0.00
9:53 pm 21:53 Mostly Cloudy 40 4.4 30 -1.1 68 68 SW 6 9 29.84 1010 10 16 0.00 0.00
10:53 pm 22:53 Mostly Cloudy 40 4.4 31 -0.6 70 70 W 6 9 29.83 1010 10 16 0.00 0.00
11:53 pm 23:53 Mostly Cloudy 40 4.4 31 -0.6 70 70 W 7 11 29.83 1010 10 16 0.00 0.00

Powered by AerisWeather